{"data":{"norad_id":60077,"intl_designator":"2024-113U","name":"STARLINK-32032","alt_names":[],"object_type":"PAYLOAD","status":"ACTIVE","operator":null,"country":"US","launch_date":"2024-06-19","launch_site_code":"AFWTR","launch_vehicle":null,"mission":null,"orbit_class":"UNKNOWN","rcs_meters":null,"size_class":null,"mass_kg":null,"dimensions":null,"purposes":["comms"],"wikipedia_slug":null,"has_3d_model":false,"image_url":null,"decayed_at":null,"tle_current":{"epoch":"2026-09-21T21:20:46.329504Z","epoch_age_seconds":58158,"freshness":"FRESH","line1":"1 60077U 24113U   26264.88942511 -.00001694  00000+0 -39030-4 0  9999","line2":"2 60077  53.1604 163.2028 0001158  53.7183 306.3927 15.34381903127338","mean_motion":15.34381903,"eccentricity":0.0001158,"inclination_deg":53.1604,"raan_deg":163.2028,"arg_perigee_deg":53.7183,"mean_anomaly_deg":306.3927,"bstar":-3.903e-5,"rev_number":12733,"period_min":93.848864952365,"perigee_km":461.964853305,"apogee_km":463.54920436208,"semimajor_km":6840.8940288335,"source":"CELESTRAK","updated_at":"2026-09-22T09:00:49.149021Z"}}}